Location: Davayat
(45.9471°N, 3.1105°E)
Time: 16:54:26
(UTC+00:00)

CZ-4B R/B - Pass Details

Date: 01 December 2020
Orbit: 809 x 881 km, 99.1° (Epoch: 17 January)

Event Time Altitude Azimuth Distance (km) Brightness Sun altitude
Rises 17:42:44 0° 182° (S) 3,338 6.5 -16.6°
Reaches altitude 10° 17:45:11 10° 189° (S) 2,403 5.9 -17.0°
Maximum altitude 17:50:14 44° 261° (W) 1,118 4.4 -17.8°
Drops below altitude 10° 17:55:17 10° 333° (NNW) 2,405 5.7 -18.7°
Sets 17:57:45 0° 340° (NNW) 3,341 6.4 -19.1°
